Weather History for BGSF - December, 2013

Change the Weather History Date:

Saturday, December 28, 2013

  Actual Average Record
Temperature  
Mean Temperature -20 °F -  
Max Temperature -14 °F 6 °F 39 °F (2014)
Min Temperature -25 °F -12 °F -25 °F (2013)
Degree Days  
Heating Degree Days 84    
Moisture  
Dew Point -28 °F    
Average Humidity 65    
Maximum Humidity 77    
Minimum Humidity 45    
Precipitation  
Precipitation 0.00 in 0.01 in - ()
Sea Level Pressure  
Sea Level Pressure 29.59 in    
Wind  
Wind Speed 8 mph ()    
Max Wind Speed 12 mph    
Max Gust Speed -    
Visibility 6.2 miles    
Events      
Averages and records for this station are not official NWS values.
T = Trace of Precipitation, MM = Missing Value Source: Averaged Metar Reports

Daily Weather History Graph

Daily Weather History Graph

Search for Another Location

Airport or City:

Trip Planner

Search our weather history database for the weather conditions in past years. The results will help you decide how hot, cold, wet, or windy it might be!

Date:

Astronomy

Dec. 28, 2013 Rise Set
Actual Time 11:30 AM WGT 1:18 PM WGT
Civil Twilight 9:29 AM WGT 3:19 PM WGT
Nautical Twilight 8:07 AM WGT 4:41 PM WGT
Astronomical Twilight 6:59 AM WGT 5:49 PM WGT
Moon 5:00 AM WGT (12/28) 11:58 AM WGT (12/28)
Length of Visible Light 5h 50m
Length of Day
1h 48m
Waning Crescent, 20% of the Moon is Illuminated
Dec 28
Waning Crescent
Jan 1
New
Jan 8
First Quarter
Jan 16
Full
Jan 24
Last Quarter

Hourly Weather History & Observations

Time (WGT) Temp. Windchill Dew Point Humidity Pressure Visibility Wind Dir Wind Speed Gust Speed Precip Events Conditions
12:00 AM -15 °F - -23 °F 50% 29.67 in 31 mi ENE 6.9 mph - -   Scattered Clouds
12:20 AM -14.8 °F -30.8 °F -22.0 °F 70% 29.62 in 6.2 mi ENE 6.9 mph - N/A   Partly Cloudy
12:50 AM -16.6 °F -34.4 °F -23.8 °F 70% 29.62 in 6.2 mi ENE 8.1 mph - N/A   Mostly Cloudy
1:00 AM -17 °F - -24 °F 54% 29.65 in 31 mi ENE 9.2 mph - -   Mostly Cloudy
1:20 AM -14.8 °F -32.2 °F -22.0 °F 70% 29.59 in 6.2 mi ENE 8.1 mph - N/A   Scattered Clouds
1:50 AM -13.0 °F -28.6 °F -18.4 °F 77% 29.59 in 6.2 mi NE 6.9 mph - N/A   Unknown
2:00 AM -14 °F - -23 °F 49% 29.64 in 31 mi NE 6.9 mph - -  
2:20 AM -16.6 °F -34.4 °F -23.8 °F 70% 29.59 in 6.2 mi East 8.1 mph - N/A   Unknown
2:50 AM -16.6 °F -31.3 °F -23.8 °F 70% 29.56 in 6.2 mi ENE 5.8 mph - N/A   Unknown
3:00 AM -17 °F - -25 °F 49% 29.62 in 31 mi ENE 5.8 mph - -  
3:20 AM -20.2 °F -37.3 °F -27.4 °F 69% 29.59 in 6.2 mi ENE 6.9 mph - N/A   Unknown
3:50 AM -18.4 °F -37.9 °F -25.6 °F 70% 29.56 in 6.2 mi ENE 9.2 mph - N/A   Unknown
4:00 AM -20 °F - -28 °F 49% 29.62 in 31 mi ENE 10.4 mph - -  
4:20 AM -16.6 °F -34.4 °F -22.0 °F 76% 29.56 in 6.2 mi NE 8.1 mph - N/A   Unknown
4:50 AM -16.6 °F -35.7 °F -23.8 °F 70% 29.56 in 6.2 mi NE 9.2 mph - N/A   Unknown
5:00 AM -19 °F - -27 °F 50% 29.61 in 31 mi ENE 10.4 mph - -  
5:20 AM -14.8 °F -32.2 °F -22.0 °F 70% 29.56 in 6.2 mi ENE 8.1 mph - N/A   Unknown
5:50 AM -16.6 °F -35.7 °F -23.8 °F 70% 29.56 in 6.2 mi ENE 9.2 mph - N/A   Unknown
6:00 AM -16 °F - -25 °F 49% 29.60 in 31 mi ENE 8.1 mph - -  
6:20 AM -16.6 °F -32.9 °F -23.8 °F 70% 29.56 in 6.2 mi ENE 6.9 mph - N/A   Unknown
6:50 AM -22.0 °F -41.0 °F -29.2 °F 69% 29.56 in 6.2 mi ENE 8.1 mph - N/A   Unknown
7:00 AM -23 °F - -31 °F 50% 29.62 in 31 mi ENE 8.1 mph - -  
7:20 AM -23.8 °F -41.6 °F -29.2 °F 76% 29.59 in 6.2 mi ENE 6.9 mph - N/A   Unknown
7:50 AM -23.8 °F -43.2 °F -31.0 °F 69% 29.56 in 6.2 mi ENE 8.1 mph - N/A   Unknown
8:00 AM -24 °F - -32 °F 50% 29.62 in 31 mi ENE 8.1 mph - -  
8:20 AM -22.0 °F -42.3 °F -29.2 °F 69% 29.56 in 6.2 mi ENE 9.2 mph - N/A   Unknown
8:50 AM -22.0 °F -42.3 °F -27.4 °F 76% 29.59 in 6.2 mi NE 9.2 mph - N/A   Unknown
9:00 AM -22 °F - -29 °F 52% 29.63 in 47 mi NE 9.2 mph - -  
9:20 AM -18.4 °F -39.1 °F -25.6 °F 70% 29.59 in 6.2 mi ENE 10.4 mph - N/A   Unknown
9:50 AM -20.2 °F -40.1 °F -27.4 °F 69% 29.59 in 6.2 mi NE 9.2 mph - N/A   Partly Cloudy
10:00 AM -22 °F - -30 °F 50% 29.62 in 31 mi ENE 9.2 mph - -   Scattered Clouds
10:20 AM -20.2 °F -41.3 °F -27.4 °F 69% 29.59 in 6.2 mi ENE 10.4 mph - N/A   Unknown
10:50 AM -22.0 °F -39.4 °F -31.0 °F 63% 29.59 in 6.2 mi NE 6.9 mph - N/A   Unknown
11:00 AM -22 °F - -30 °F 49% 29.64 in 31 mi NE 6.9 mph - -  
11:20 AM -18.4 °F -35.1 °F -23.8 °F 76% 29.59 in 6.2 mi ENE 6.9 mph - N/A   Unknown
11:50 AM -23.8 °F -44.5 °F -31.0 °F 69% 29.59 in 6.2 mi ENE 9.2 mph - N/A   Partly Cloudy
12:00 PM -22 °F - -30 °F 51% 29.64 in 31 mi ENE 11.5 mph - -   Scattered Clouds
12:20 PM -22.0 °F -41.0 °F -29.2 °F 69% 29.59 in 6.2 mi NE 8.1 mph - N/A   Unknown
12:50 PM -23.8 °F -44.5 °F -31.0 °F 69% 29.59 in 6.2 mi NE 9.2 mph - N/A   Unknown
1:00 PM -24 °F - -32 °F 49% 29.63 in 31 mi ENE 8.1 mph - -  
1:20 PM -23.8 °F -44.5 °F -29.2 °F 76% 29.56 in 6.2 mi NE 9.2 mph - N/A   Unknown
1:50 PM -23.8 °F -45.8 °F -29.2 °F 76% 29.56 in 6.2 mi ENE 10.4 mph - N/A   Scattered Clouds
2:00 PM -23 °F - -32 °F 45% 29.63 in 31 mi ENE 10.4 mph - -   Mostly Cloudy
2:20 PM -25.6 °F -49.2 °F -31.0 °F 76% 29.59 in 6.2 mi NE 11.5 mph - N/A   Scattered Clouds
2:50 PM -23.8 °F -45.8 °F -31.0 °F 69% 29.56 in 6.2 mi ENE 10.4 mph - N/A   Partly Cloudy
3:00 PM -21 °F - -28 °F 53% 29.62 in 47 mi NE 9.2 mph - -   Clear
3:20 PM -22.0 °F -41.0 °F -27.4 °F 76% 29.56 in 6.2 mi ENE 8.1 mph - N/A   Partly Cloudy
3:50 PM -23.8 °F -44.5 °F -31.0 °F 69% 29.56 in 6.2 mi ENE 9.2 mph - N/A   Unknown
4:00 PM -25 °F - -33 °F 47% 29.61 in 31 mi ENE 9.2 mph - -   Scattered Clouds
4:20 PM -22.0 °F -42.3 °F -29.2 °F 69% 29.56 in 6.2 mi ENE 9.2 mph - N/A   Partly Cloudy
4:50 PM -25.6 °F -45.4 °F -31.0 °F 76% 29.56 in 6.2 mi NE 8.1 mph - N/A   Partly Cloudy
5:00 PM -22 °F - -29 °F 53% 29.61 in 31 mi NE 8.1 mph - -   Scattered Clouds
5:20 PM -25.6 °F -45.4 °F -31.0 °F 76% 29.56 in 6.2 mi ENE 8.1 mph - N/A   Unknown
5:50 PM -23.8 °F -43.2 °F -31.0 °F 69% 29.59 in 6.2 mi ENE 8.1 mph - N/A   Partly Cloudy
6:00 PM -25 °F - -33 °F 50% 29.63 in 31 mi ENE 9.2 mph - -  
6:20 PM -25.6 °F -46.8 °F -32.8 °F 69% 29.56 in 6.2 mi ENE 9.2 mph - N/A   Unknown
6:50 PM -23.8 °F -44.5 °F -31.0 °F 69% 29.56 in 6.2 mi ENE 9.2 mph - N/A   Partly Cloudy
7:00 PM -24 °F - -32 °F 48% 29.62 in 31 mi ENE 9.2 mph - -   Scattered Clouds
7:20 PM -23.8 °F -45.8 °F -31.0 °F 69% 29.56 in 6.2 mi ENE 10.4 mph - N/A   Unknown
7:50 PM -23.8 °F -45.8 °F -31.0 °F 69% 29.56 in 6.2 mi ENE 10.4 mph - N/A   Partly Cloudy
8:00 PM -23 °F - -30 °F 54% 29.61 in 31 mi ENE 9.2 mph - -   Scattered Clouds
8:20 PM -23.8 °F -45.8 °F -29.2 °F 76% 29.56 in 6.2 mi ENE 10.4 mph - N/A   Scattered Clouds
8:50 PM -20.2 °F -37.3 °F -27.4 °F 69% 29.56 in 6.2 mi NE 6.9 mph - N/A   Mostly Cloudy
9:00 PM -21 °F - -28 °F 53% 29.60 in 31 mi ENE 8.1 mph - -   Partly Cloudy
9:20 PM -20.2 °F -40.1 °F -27.4 °F 69% 29.53 in 6.2 mi ENE 9.2 mph - N/A   Mostly Cloudy
9:50 PM -22.0 °F -41.0 °F -27.4 °F 76% 29.53 in 6.2 mi ENE 8.1 mph - N/A   Mostly Cloudy
10:00 PM -21 °F - -29 °F 51% 29.59 in 31 mi ENE 6.9 mph - -   Mostly Cloudy
10:20 PM -20.2 °F -40.1 °F -25.6 °F 76% 29.53 in 6.2 mi ENE 9.2 mph - N/A   Mostly Cloudy
10:50 PM -20.2 °F -38.8 °F -25.6 °F 76% 29.53 in 6.2 mi ENE 8.1 mph - N/A   Mostly Cloudy
11:00 PM -20 °F - -27 °F 53% 29.58 in 31 mi ENE 9.2 mph - -   Mostly Cloudy
11:20 PM -20.2 °F -40.1 °F -25.6 °F 76% 29.53 in 6.2 mi ENE 9.2 mph - N/A   Mostly Cloudy
11:50 PM -20.2 °F -38.8 °F -25.6 °F 76% 29.53 in 6.2 mi ENE 8.1 mph - N/A   Mostly Cloudy